Change the Weather History Date:

Thursday, January 30, 2014

  Actual Average Record
Temperature  
Mean Temperature 56 °F 47 °F  
Max Temperature 73 °F 60 °F 77 °F (1890)
Min Temperature 38 °F 34 °F 9 °F (1949)
Degree Days  
Heating Degree Days 9 18  
Month to date heating degree days 551 599  
Since 1 July heating degree days 1558 1667  
Cooling Degree Days 0 0  
Month to date cooling degree days 0 0  
Year to date cooling degree days 0 0  
Growing Degree Days 6 (Base 50)    
Moisture  
Dew Point 16 °F    
Average Humidity 20    
Maximum Humidity 30    
Minimum Humidity 10    
Precipitation  
Precipitation 0.00 in 0.02 in 0.57 in (1915)
Month to date precipitation 0.00 0.39  
Year to date precipitation 0.00 0.39  
Snow  
Snow 0.00 in - - ()
Month to date snowfall 0.0  
Since 1 July snowfall T  
Snow Depth 0.00 in    
Sea Level Pressure  
Sea Level Pressure 29.80 in    
Wind  
Wind Speed 15 mph (SW)    
Max Wind Speed 30 mph    
Max Gust Speed 38 mph    
Visibility 10 miles    
Events      
T = Trace of Precipitation, MM = Missing Value Source: NWS Daily Summary

Daily Weather History Graph

Daily Weather History Graph

Search for Another Location

Airport or City:

Trip Planner

Search our weather history database for the weather conditions in past years. The results will help you decide how hot, cold, wet, or windy it might be!

Date:

Astronomy

Jan. 30, 2014 Rise Set
Actual Time 6:59 AM MST 5:38 PM MST
Civil Twilight 6:34 AM MST 6:03 PM MST
Nautical Twilight 6:05 AM MST 6:33 PM MST
Astronomical Twilight 5:36 AM MST 7:01 PM MST
Moon 6:30 AM MST (1/30) 5:49 PM MST (1/30)
Length of Visible Light 11h 29m
Length of Day
10h 38m
Waning Crescent, 0% of the Moon is Illuminated
Jan 30
Waning Crescent
Jan 30
New
Feb 6
First Quarter
Feb 14
Full
Feb 22
Last Quarter

Hourly Weather History & Observations

Time (MST) Temp. Windchill Dew Point Humidity Pressure Visibility Wind Dir Wind Speed Gust Speed Precip Events Conditions
12:51 AM 42.1 °F 37.1 °F 12.9 °F 31% 29.92 in 10.0 mi South 8.1 mph - N/A   Scattered Clouds
1:51 AM 43.0 °F 38.8 °F 12.9 °F 30% 29.89 in 10.0 mi South 6.9 mph - N/A   Scattered Clouds
2:51 AM 42.1 °F 36.1 °F 12.9 °F 31% 29.87 in 10.0 mi SSE 10.4 mph - N/A   Scattered Clouds
3:51 AM 42.1 °F 36.1 °F 14.0 °F 32% 29.86 in 10.0 mi SW 10.4 mph - N/A   Scattered Clouds
4:51 AM 50.0 °F - 12.9 °F 23% 29.82 in 10.0 mi SW 15.0 mph - N/A   Mostly Cloudy
5:51 AM 53.1 °F - 10.9 °F 19% 29.83 in 10.0 mi SW 15.0 mph - N/A   Scattered Clouds
6:51 AM 54.0 °F - 10.0 °F 17% 29.84 in 10.0 mi WSW 15.0 mph - N/A   Scattered Clouds
7:51 AM 61.0 °F - 9.0 °F 13% 29.84 in 10.0 mi West 19.6 mph 33.4 mph N/A   Scattered Clouds
8:51 AM 60.1 °F - 10.0 °F 14% 29.86 in 10.0 mi WSW 19.6 mph - N/A   Scattered Clouds
9:51 AM 64.9 °F - 10.9 °F 12% 29.86 in 10.0 mi West 19.6 mph 25.3 mph N/A   Scattered Clouds
10:51 AM 66.0 °F - 12.0 °F 12% 29.86 in 10.0 mi WSW 13.8 mph - N/A   Mostly Cloudy
11:51 AM 66.0 °F - 12.0 °F 12% 29.84 in 10.0 mi West 15.0 mph - N/A   Mostly Cloudy
12:51 PM 71.1 °F - 12.9 °F 11% 29.79 in 10.0 mi SSW 13.8 mph 23.0 mph N/A   Mostly Cloudy
1:16 PM 71.6 °F - 14.0 °F 11% 29.90 in 10.0 mi WSW 18.4 mph 23.0 mph N/A   Mostly Cloudy
1:51 PM 71.1 °F - 15.1 °F 12% 29.77 in 10.0 mi SW 10.4 mph 20.7 mph N/A   Mostly Cloudy
2:51 PM 73.0 °F - 19.0 °F 13% 29.74 in 10.0 mi WSW 21.9 mph 29.9 mph N/A   Mostly Cloudy
3:51 PM 73.0 °F - 19.9 °F 14% 29.73 in 10.0 mi WSW 17.3 mph 28.8 mph N/A   Mostly Cloudy
4:51 PM 72.0 °F - 19.9 °F 14% 29.71 in 10.0 mi West 10.4 mph - N/A   Mostly Cloudy
5:51 PM 70.0 °F - 19.9 °F 15% 29.71 in 10.0 mi West 8.1 mph 20.7 mph N/A   Mostly Cloudy
6:51 PM 64.9 °F - 21.0 °F 19% 29.73 in 10.0 mi Variable 5.8 mph - N/A   Mostly Cloudy
7:51 PM 64.0 °F - 21.9 °F 20% 29.72 in 10.0 mi SSW 12.7 mph - N/A   Mostly Cloudy
8:51 PM 63.0 °F - 23.0 °F 22% 29.73 in 10.0 mi SSW 11.5 mph - N/A   Scattered Clouds
9:51 PM 64.0 °F - 26.1 °F 24% 29.73 in 10.0 mi SW 20.7 mph 32.2 mph N/A   Scattered Clouds
10:51 PM 62.1 °F - 25.0 °F 24% 29.73 in 10.0 mi WSW 21.9 mph - N/A   Mostly Cloudy
11:51 PM 64.0 °F - 26.1 °F 24% 29.70 in 10.0 mi WSW 25.3 mph - N/A   Scattered Clouds